Location: Boca do Mato
(22.9085°S, 43.2930°W)
Time: 22:00:39
(UTC+00:00)

Cosmos 2227 Rocket - Pass Details

Date: 14 July 2020
Orbit: 839 x 845 km, 71.0° (Epoch: 10 August)

Event Time Altitude Azimuth Distance (km) Brightness Sun altitude
Exits shadow 07:08:31 27° 147° (SSE) 1,585 3.7 -32.7°
Maximum altitude 07:10:23 33° 112° (ESE) 1,392 3.7 -32.3°
Drops below altitude 10° 07:15:25 10° 49° (NE) 2,458 5.3 -31.2°
Sets 07:18:04 0° 39° (NE) 3,387 6.0 -30.6°
